星链-3055 (STARLINK-3055 )

导读

STARLINK-3055是美国SpaceX公司星链(Starlink)星座中的一颗低轨通信卫星,于2021年9月14日发射升空,属于星链第一代V1.5批次卫星。该卫星运行在近地轨道,配备氪离子推进系统与相控阵通信天线,主要为全球缺乏传统基础设施的偏远地区提供高速低延迟宽带互联网服务,单星设计寿命约5年,退役后会主动降轨在大气层中完全烧毁,减少空间碎片影响。

Basic Information
目录编号:
49137
目录名称:
STARLINK-3055
国际标识:
2021-082H
轨道中心:
EARTH
卫星名称:
星链-3055
卫星全名:
星链-3055 (STARLINK-3055 )
卫星状态:
在轨 (已飞行1817 天)
发射日期:
2021-09-14 UTC
国别 :
美国 (US)
星等 :
--
Orbit Information
数据来源 国际轨道数据
星历时间: 2026-09-05T11:52:22+0800
6小时前
查看轨道信息
半长轴: 6952.696km
偏心率: 0.0003192
轨道倾角: 70.000°
近地点辐角 269.070°
升交点赤经 183.298°
平近点角 91.009°
近地点: 572.339km
远地点: 576.779km
周期: 96.159分钟
每日圈数: 14.975211
Detailed Information
固有亮度:
5
最大亮度:
2.5
卫星平台:
Starlink v1.5
覆盖范围:
全球
运营商:
太空探索技术公司
运营商所在国:
美国
制造商(研发单位):
太空探索技术公司
制造商所在国:
美国
使用方式:
暂无
Satellite Introduction
星链(Starlink)计划是由太空探索技术公司(SpaceX)提出的一个巨型低轨卫星互联网星座项目,计划在2019年至2024年间在太空搭建由约1.2万颗卫星组成的“星链”网络,其中1584颗将部署在地球上空550千米处的近地轨道,并从2020年开始工作。该卫星仍在工作。
2D Orbit Map
3D Orbit Map
Orbit Altitude Analysis Chart
Orbit Inclination Analysis Chart
Orbit Comprehensive Analysis Chart
View Comprehensive Chart
Conjunction Data List
Event ID Objects TCA Miss Dist (km) Collision Risk Probability Collision Risk Index (CRI) Action
CDM_260829-174704-913705-539321
2026-08-29T
17:47:57+0000
2.692 km
极远距离
1.483269E-6 低风险 0.38
CDM_260906-155204-913705-541021
2026-09-06T
15:52:07+0000
2.764 km
极远距离
1.454677E-6 低风险 0.38
CDM_260907-095404-913705-577921
2026-09-07T
09:54:56+0000
2.623 km
极远距离
1.155743E-6 低风险 0.36